Location: Twin Oaks Observatory
(35.2860°N, 85.1951°W)
Time: 17:47:18
(UTC-04:00)

Daily predictions for brighter satellites

Satellite Brightness Start Highest point End
(mag) Time Altitude Azimuth Time Altitude Azimuth Time Altitude Azimuth
SAR-Lupe-3 4.5 19:58:31 10° NNE 20:02:06 70° ESE 20:05:39 10° S
OAO 3 Copernicus 4.4 19:57:20 10° WSW 20:02:21 71° SSE 20:07:23 10° E
Cosmos 1606 Rocket 3.5 19:58:13 10° S 20:02:34 75° E 20:06:53 10° N
Cosmos 2150 Rocket 4.5 19:57:51 10° N 20:02:56 43° ENE 20:08:03 10° SE
SKYMED 2 4.3 19:58:44 10° N 20:03:01 59° WNW 20:07:16 10° SSW
Cosmos 304 Rocket 4.2 20:00:08 10° S 20:04:34 40° ESE 20:09:04 10° NNE
Cosmos 2058 Rocket 3.3 20:02:00 10° SSE 20:06:08 44° E 20:10:18 10° NNE
Cosmos 1953 Rocket 3.7 20:03:35 10° N 20:07:49 51° E 20:12:00 10° SSE
Cosmos 389 Rocket 2.9 20:07:52 10° SSW 20:11:21 67° W 20:14:50 10° N
Cosmos 858 Rocket 4.5 20:07:33 10° NNW 20:12:49 71° ENE 20:18:00 10° SSE
OE (NEXTSAT) 4.4 20:10:39 10° WNW 20:14:12 81° SSW 20:17:42 10° SE
Cosmos 1943 Rocket 2.2 20:08:48 10° NNW 20:14:25 86° ENE 20:20:02 10° SSE
Tiangong 2 4.0 20:13:22 10° WSW 20:15:02 13° SW 20:16:42 10° S
Cosmos 841 Rocket 3.5 20:10:14 10° S 20:15:16 60° ESE 20:20:20 10° NNE
SJ-6B 3.7 20:13:22 10° SE 20:16:54 30° ENE 20:20:23 10° N
USA 229 DEB 3.8 20:09:43 10° NNW 20:16:58 81° ENE 20:24:19 10° SSE
USA 229 3.8 20:09:49 10° NNW 20:17:04 80° ENE 20:24:24 10° SE
Cosmos 1356 Rocket 4.4 20:15:03 10° NNE 20:18:49 29° ENE 20:22:35 10° SE
Meteor 2-13 Rocket 4.4 20:15:03 10° S 20:21:07 71° E 20:27:09 10° NNE
Cosmos 1937 Rocket 3.5 20:16:19 10° NNW 20:21:38 72° ENE 20:26:51 10° SSE
ALOS 2.3 20:18:25 10° SSE 20:23:05 88° ENE 20:27:46 10° NNW
Cosmos 1825 Rocket 4.1 20:21:48 10° NNW 20:26:11 63° W 20:30:33 10° S
Cosmos 2298 Rocket 4.0 20:22:31 10° NNW 20:27:53 84° ENE 20:33:12 10° SSE
NOSS 3-1 (C) 4.3 20:23:08 10° NNW 20:30:42 55° NE 20:38:46 11° SE
HJ-1C 3.8 20:30:38 10° SE 20:33:47 40° ENE 20:36:57 10° N
Cosmos 1763 Rocket 4.0 20:30:27 10° SSW 20:35:28 62° WNW 20:40:35 10° N
H-2A R/B 2.7 20:32:00 10° SSE 20:35:37 58° ENE 20:39:18 10° N
Cosmos 540 Rocket 3.7 20:31:12 10° S 20:36:01 44° ESE 20:40:51 10° NNE
FREGAT/IRIS 2.5 20:33:04 10° SSE 20:36:05 83° ENE 20:39:06 10° N
SL-08 ROCKET BODY 4.4 20:30:17 10° S 20:36:09 88° WNW 20:42:07 10° N
FENGYUN 3A 4.3 20:41:53 10° S 20:47:08 59° W 20:52:26 10° NNW
Meteor 1-22 Rocket 4.1 20:42:23 10° S 20:48:08 73° E 20:53:41 10° NNE
Meteor 2-5 Rocket 3.9 20:43:19 10° N 20:49:10 81° W 20:54:52 10° S
Cosmos 1656 Rocket 3.6 20:45:10 10° NNW 20:50:49 73° ENE 20:55:52 13° SSE
Cosmos 1766 3.1 20:49:21 10° S 20:53:17 79° E 20:57:12 10° N
COSMOS 2406 3.1 20:48:30 10° SSW 20:54:11 84° ESE 20:59:56 10° NNE
CZ-3 Stage 3 2.6 20:56:40 10° SSW 20:56:52 12° SSW 20:56:52 12° SSW
Cosmos 1707 4.2 20:54:38 10° NNW 20:58:19 39° W 21:01:57 10° SSW
BREEZE M DEB (TANK) 3.3 20:53:57 10° NW 20:59:39 40° NNE 21:00:22 35° ENE
FengYun 1-2 T 4.5 20:56:12 10° S 21:01:48 73° WSW 21:07:23 10° NNW
Cosmos 2154 Rocket 4.0 20:57:16 10° SSE 21:03:15 53° E 21:09:18 10° NNE
Spot 2 Rocket 3.8 21:01:55 33° ESE 21:03:34 44° ENE 21:08:20 10° N
Cosmos 2074 Rocket 4.2 21:00:37 10° SSW 21:06:47 72° W 21:13:00 10° N
Resurs 1-3 3.7 21:06:53 44° ESE 21:07:43 51° ENE 21:11:58 10° N
Cosmos 1544 3.3 21:07:52 10° SSW 21:11:27 68° W 21:15:03 10° N
Cosmos 2341 Rocket 4.2 21:10:05 21° SSE 21:13:51 44° E 21:19:41 10° NNE
In-Cosmos 22 4.2 21:11:41 10° N 21:17:24 89° ENE 21:22:35 13° S
Cosmos 783 Rocket 4.4 21:15:20 10° S 21:20:28 62° ESE 21:25:36 10° NNE
Cosmos 1805 3.5 21:24:23 10° SSW 21:28:15 65° W 21:32:08 10° N
Resurs 01 Rocket 1.6 21:28:06 55° S 21:29:01 83° WSW 21:33:28 10° NNW
Cosmos 1125 Rocket 3.4 21:26:09 10° NNW 21:31:29 82° ENE 21:32:25 61° SSE
FALCON 9 R/B 2.0 21:30:19 10° W 21:33:44 82° S 21:34:48 59° ESE
CZ-2D R/B 4.1 21:32:58 41° SW 21:33:46 48° W 21:37:28 10° NNW
GEOS 3 Rocket 3.5 21:34:02 50° ENE 21:35:23 71° ESE 21:40:43 10° SSW
Envisat 2.8 21:34:59 64° SSE 21:35:47 86° ENE 21:40:54 10° NNW
GP-B 3.3 21:33:20 10° N 21:37:46 70° W 21:38:38 54° SW
ISS -1.5 21:35:01 10° WSW 21:36:16 21° WSW 21:36:16 21° WSW
Nadezhda 3 Rocket 3.8 21:32:23 10° N 21:38:43 83° E 21:40:53 44° SSE
Cosmos 1812 Rocket 4.4 21:35:12 10° SSW 21:39:31 51° W 21:43:53 10° N
Cosmos 372 Rocket 3.8 21:35:17 10° NNW 21:40:34 87° ENE 21:40:49 81° SE
OAO 3 Copernicus 4.4 21:41:49 10° W 21:46:25 74° W 21:46:25 74° W
Cosmos 1295 Rocket 4.3 22:00:05 77° SSW 22:00:32 85° W 22:06:39 10° N
ATLAS 2AS CENTAUR R/B 3.8 21:56:14 10° NNW 22:02:57 34° NE 22:02:57 34° NE
Milstar 3 Cent rocket 4.2 22:21:29 10° WSW 22:22:33 16° WSW 22:22:33 16° WSW
